#timestamp,LO_Frequency,Hit,StdDev 
1508821215.6,286046999.2,N
1508821235.4,286046998.3,N
1508821255.3,286046998.3,N
1508821275.1,286046998.8,N
1508821276.0,286046998.8,N
1508821295.8,286046997.1,N
1508821315.7,286046997.7,N
1508821335.5,286046997.7,N
1508821355.3,286046997.0,N
1508821375.2,286046996.9,N
1508821395.0,286046999.0,N
1508821395.9,286046999.0,N
1508821415.8,286046997.5,N
1508821435.6,286046995.0,N
1508821455.4,286046995.5,N
1508821475.3,286046995.2,N
1508821495.1,286046993.4,N
1508821515.8,286046997.4,N
1508821535.7,286046995.4,N
1508821555.5,286046997.0,N
1508821575.4,286046997.0,N
1508821595.2,286046997.4,N
1508821615.1,286046995.5,N
1508821616.0,286046995.5,N
1508821635.8,286046993.3,N
1508821655.7,286046994.2,N
1508821675.5,286046993.0,N
1508821695.3,286046992.8,N
1508821715.2,286046992.4,N
1508821735.0,286046992.1,N
1508821735.9,286046992.1,Y
1508821755.8,286046996.6,P
1508821775.6,286046997.2,P
1508821795.4,286046996.5,P
1508821815.3,286046996.6,Y
1508821835.1,286047002.1,P
1508821855.9,286047000.1,N
1508821875.7,286047002.6,N
1508821895.5,286047001.4,N
1508821915.4,286047004.2,N
1508821935.2,286047002.2,N
1508821955.0,286047002.2,N
1508821955.9,286047002.2,N
1508821975.8,286047002.6,N
1508821995.6,286046999.7,N
1508822015.5,286047001.5,N
1508822035.3,286047002.4,N
1508822055.1,286047002.6,N
1508822075.9,286047002.7,N
1508822095.7,286047002.7,N
1508822115.5,286047002.6,N
1508822135.4,286046999.8,N
1508822155.2,286047000.6,N
1508822175.1,286046998.3,N
1508822176.0,286046998.3,N
1508822195.8,286046999.0,N
1508822215.6,286046998.9,N
1508822235.5,286046998.8,N
1508822255.3,286046998.9,N
1508822275.2,286046998.5,N
1508822295.9,286047000.5,N
1508822315.7,286047001.0,N
1508822335.6,286046999.9,N
1508822355.4,286047000.3,N
1508822375.2,286047000.6,N
1508822395.1,286047000.6,N
1508822396.0,286047000.6,N
1508822415.8,286046998.9,N
1508822435.7,286046998.7,N
1508822455.5,286046998.3,N
1508822475.3,286047000.4,N
1508822495.2,286046998.4,N
1508822515.0,286046998.3,N
1508822515.9,286046998.3,N
1508822535.7,286047000.8,N
1508822555.6,286047000.0,N
1508822575.4,286047000.6,N
1508822595.3,286047000.1,N
1508822615.1,286047011.9,Y
1508822635.8,286046998.1,P
1508822655.7,286047000.7,N
1508822675.5,286046999.7,N
1508822695.4,286047000.6,N
1508822715.2,286046999.8,N
1508822735.0,286046999.7,N
1508822735.9,286046999.7,N
1508822755.8,286047002.1,N
1508822775.6,286047000.0,N
1508822795.4,286047000.3,N
1508822815.3,286047000.5,N
1508822835.1,286047000.3,N
1508822855.9,286047000.2,N
1508822875.7,286047000.5,N
1508822895.5,286047000.2,N
1508822915.4,286047001.2,N
1508822935.2,286046998.5,N
1508822955.1,286047001.1,N
1508822956.0,286047001.1,N
1508822975.8,286046998.4,N
1508822995.6,286047002.8,N
1508823015.5,286046999.9,N
1508823035.3,286046999.7,N
1508823055.2,286047002.0,N
1508823075.9,286047000.1,N
1508823095.7,286046999.7,N
1508823115.6,286046999.7,N
1508823135.4,286047000.0,N
1508823155.3,286047000.5,N
1508823175.1,286046999.9,N
1508823176.0,286046999.9,N
1508823195.8,286047001.8,N
1508823215.7,286047002.6,N
1508823235.5,286047002.5,N
1508823255.4,286047000.4,N
1508823275.2,286047000.2,N
1508823295.0,286046999.9,N
1508823295.9,286046999.9,N
1508823315.8,286047002.7,N
1508823335.6,286046999.7,N
1508823355.4,286047000.4,N
1508823375.3,286047000.2,N
1508823395.1,286047000.9,N
1508823415.9,286047000.5,N
1508823435.7,286046999.8,N
1508823455.5,286047001.8,N
1508823475.4,286047002.5,N
1508823495.2,286047001.8,N
1508823515.1,286047002.5,N
1508823516.0,286047002.5,N
1508823535.8,286047001.4,N
1508823555.6,286047001.6,N
1508823575.5,286047003.6,Y
1508823595.3,286047001.4,P
1508823615.1,286047001.3,P
1508823635.9,286047002.6,P
1508823655.7,286047001.5,N
1508823675.6,286047003.8,Y
1508823695.4,286047001.5,P
1508823715.3,286047001.4,P
1508823735.1,286047003.9,P
1508823736.0,286047003.9,Y
1508823755.8,286047002.4,P
1508823775.7,286047000.6,P
1508823795.5,286047000.6,N
1508823815.4,286047000.7,N
1508823835.2,286047001.1,N
1508823855.0,286046998.6,N
1508823855.9,286046998.6,N
1508823875.8,286047001.0,N
1508823895.6,286046999.8,N
1508823915.4,286047002.1,N
1508823935.3,286047001.9,N
1508823955.1,286047001.7,N
1508823975.9,286047001.5,N
1508823995.7,286047002.4,N
1508824015.5,286046999.7,N
1508824035.4,286047000.4,N
1508824055.2,286047000.1,N
1508824075.0,286047002.7,N
1508824075.9,286047002.7,N
1508824095.8,286047002.4,N
1508824115.6,286047004.4,Y
1508824135.5,286047002.6,P
1508824155.3,286047000.3,N
1508824175.1,286047000.5,N
1508824195.9,286047000.0,N
1508824215.7,286047000.3,N
1508824235.6,286047002.7,Y
1508824255.4,286047000.9,P
1508824275.2,286047000.2,P
1508824295.1,286046998.2,P
1508824296.0,286046998.2,N
1508824315.8,286046998.5,N
1508824335.6,286047000.7,N
1508824355.5,286047000.8,N
1508824375.3,286046999.3,N
1508824395.2,286046999.1,N
1508824415.9,286046998.1,N
1508824435.7,286047001.1,N
1508824455.6,286046998.2,N
1508824475.4,286047000.4,N
1508824495.3,286047000.1,N
1508824515.1,286047001.1,N
1508824516.0,286047001.1,N
1508824535.8,286046998.7,N
1508824555.7,286046998.8,N
1508824575.5,286046998.3,N
1508824595.4,286046998.7,N
1508824615.2,286046999.8,N
1508824635.0,286047002.4,N
1508824635.9,286047002.4,N
1508824655.8,286047002.2,N
1508824675.6,286046999.8,N
1508824695.4,286047000.1,N
1508824715.3,286046998.1,N
1508824735.1,286047001.2,N
1508824755.9,286046998.7,N
1508824775.7,286046998.2,N
1508824795.5,286047000.2,N
